Find Starlink 38105

NORAD ID: 100446 Int'l Des: 2026-193 Owner: SPXS Country: US Constellation: starlink operational

Current View

Loading 3D Globe...

About Starlink 38105

Starlink 38105 (NORAD 100446) is a starlink constellation satellite launched Aug 22, 2026 by SPXS of US. with a mass of 575.00 kg.

Upcoming Passes

Passes for default location (London). Set your location on the main map for personalized predictions.

Altitude History

Loading altitude history...

Two-Line Element Set

1 A0446U 26193P 26250.12921406 -.00061181 00000-0 -37986-3 0 9990
2 A0446 69.9990 111.6040 0006531 283.0204 77.0266 15.76817488 3652
Epoch: Sep 7, 2026 • Age: 39 hours

Current Status

Altitude 350.1 km
Apogee / Perigee N/A
Velocity 7.70 km/s
Sub-Earth Point -36.72°S, 174.4°W
Launch Date Aug 22, 2026
Age 17 days
Type internet

Technical Details

Classification Payload
Mass 575.00 kg
Dry Mass 530.00 kg
Total Mass 575.00 kg
Length 0.30 m
Diameter 4.10 m
Span 29.00 m
Shape Box
Manufacturer SPXS
Bus Type Starlink V2MO
Phase Status In Orbit
Owner/State SPXS/US

Most Searched